World > North America > United States > Illinois

Cache, Illinois Regional Weather

Lat: 37.10N, Lon: 89.26W
Wx Zone: ILZ092
Feedback

Cache, IL Regional Weather

Expires:201909220200;;151690
ASUS43 KLOT 220109
RWRIL 

ILLINOIS REGIONAL WEATHER ROUNDUP
NATIONAL WEATHER SERVICE CHICAGO/ROMEOVILLE IL
800 PM CDT SAT SEP 21 2019

NOTE: "FAIR" INDICATES FEW OR NO CLOUDS BELOW 12,000 FEET WITH NO
SIGNIFICANT WEATHER AND/OR OBSTRUCTIONS TO VISIBILITY.

* THESE STATIONS ARE NOT UNDER NWS QUALITY CONTROL. THEY ALSO MAY NOT
  REPORT WEATHER SUCH AS PRECIPITATION OR FOG.


ILZ064>066-069>071-074>076-080>082-084>086-088>090-092>094-220200-
SOUTH-CENTRAL ILLINOIS
  
CITY           SKY/WX    TMP DP  RH WIND       PRES   REMARKS
CARBONDALE     FAIR      72  65  78 SE6       30.09S                  
CAIRO*         FAIR      77  61  57 S3        30.10S                  
EFFINGHAM*     FAIR      75  58  54 SE6       30.11S                  
MARION         FAIR      74  63  69 S5        30.11R                  
MT. VERNON     FAIR      73  66  78 CALM      30.10S                  
CENTRALIA*     CLEAR     73  64  72 S3        30.09R                  
SALEM*         FAIR      74  67  79 CALM      30.10R                  
METROPOLIS*    FAIR      73  62  67 CALM      30.12R                  
$$


SKY/WX - Weather  TMP - Temperature  DP - Dew Point  RH - Relative Humidity
WIND - Wind Direction/Speed PRES - Barometric Pressure VSB - Visibility
WCI - Wind Chill Index E13G22 Wind - East Wind 13 mph/Gusts of 22 mph